CZ-6A DEB, 55879

Orbit data source: Space-Track

CZ-6A DEB, 55879 is space debris in SSO originally from a launch on Fri, 11 Nov 2022 UTC launched from the Taiyaun Space Center, China (TSC). Debris objects in space refer to the collection of defunct objects orbiting the Earth. Examples of debris include non-operational satellites, rocket bodies, and fragments generated from explosions, collisions, or faulty payload assembly.

Loading next visibility...
Identifier
55879, 2022-151AAB
Orbit
SSO
Country
Flag of CNCN / PRC
Related business
Manufacturer
SAST
Mission
Spacecraft
Bus & Motor
Unknown
Mass
Unknown
Launch date (UTC)
2022-11-11 (3 years ago)
Launch vehicle
Unknown
Launch site
Taiyaun Space Center, China (TSC)
Object type
Payload
Rocket body
Debris
Shape & HBR
Unknown shape, 0.1 m
Radar Cross Section
Small (<0.1 m²)

Expand to show TLE details & history
Last TLE update: 1 day ago

TLE from 1 day ago
0 CZ-6A DEB
1 55879U 22151AAB 25346.23335455  .00007452  00000-0  32417-2 0  9992
2 55879  98.7948 350.6830 0044148 133.1054 227.3832 14.23805925147057
Epoch: 2025-12-12T05:36Z
TLE epoch observation values (Epoch: 2025-12-12T05:36:01.833Z)
Latitude
0.00007°
Longitude
-174.50256°
Altitude
837.002 km
Speed
7.423 km/s
True Right ascension
23h 22m 43s
True Declination
0° 00' 00"
Sunlit
Object was in daylight at epoch
Visualization orbit readout
Latitude
Unknown
Longitude
Unknown
Altitude
Unknown
Speed
Unknown
Apparent Right ascension
Unknown
Apparent Declination
Unknown
Sunlit
N/A
Visualization observer readout
Local Sidereal Time
05:27:20
Azimuth
Unknown
Elevation
Unknown
Doppler factor
Unknown
Orbital elements
Apogee altitude
841.4 km
Perigee altitude
777.935 km
Semi-major axis
7,187.805 km
Eccentricity
0.00441
Inclination
98.7948°
RAAN
350.683°
Arg. of periapsis
133.1054°
True anomaly
227.0123°
Mean anomaly
227.3832°
Eccentric anomaly
227.19761°
Mean motion
3.56163 °/min
Orbital period
101.08 mins
BSTAR
0.0032417
Loading maneuver chart data...
Computing Atmospheric mass density...
Loading historical data...
Loading historical data...
Loading historical data...
Loading historical data...
Loading historical data...
Loading historical data...
Loading historical data...

Documentation

Showing up to 5 results
|